"Pseudo-MPEC" for P10NTjU

Created 2019 May 21 8:07:18 UT using Find_Orb

Click here for an explanation of pseudo-MPECs

 
 Astrometry: 
     P10NTjU  C2019 05 11SL?Astrometry*M*.Q?#(2yZ-ovOho%*=%Atx(wp[#5@PsN'lQc$F51
     P10NTjU  C2019 05 11*C1T?:pb0Ol'/4-SWRredacted;0Fr`sAe+*ii(TC!oncYCV:RDpF51
     P10NTjU  C2019 05 11_:#pl3ds5dnTISC9[R\6GPTZclickN0N.yhere@H6;j-Y=Bxfor2F51
     P10NTjU  C2019 05 11QGeexplanationt:Lw6M'jaUTj\iVekFZ5SmSPEe'GPUaP\8@c@1F51
     P10NTjU  C2019 05 13.25869 15 54 16.55 +20 12 59.8    ~5D77 21.6 GVNEOCPI52
     P10NTjU  C2019 05 13.26326 15 54 16.14 +20 12 57.7    ~5D77       VNEOCPI52
     P10NTjU  C2019 05 13.26784 15 54 15.63 +20 12 55.7    ~5D77       VNEOCPI52
     P10NTjU  C2019 05 13.27242 15 54 15.10 +20 12 53.3    ~5D77       VNEOCPI52

Station data:
(F51) Pan-STARRS 1, Haleakala  (N20.707235 W156.255910)  US/Hawaii.
   Observers N. Primak, A. Schultz, S. Watters, J. Thiel, T. Goggia. Measurer
   PS1 Science Consortium. 1.8-m Ritchey-Chrétien + CCD.
(I52) Steward Observatory, Mt. Lemmon Station  (N32.442547 W110.788920)
   US/Arizona.  Observers T. A. Pruyne, B. M. Africano, E. J. Christensen, G.
   A. Farneth, D. C. Fuls, A. R. Gibbs, A. D. Grauer, H. Groeller, J. A.
   Johnson, R. A. Kowalski, S. M. Larson, G. J. Leonard, R. L. Seaman, F. C.
   Shelly. 1.0-m reflector + CCD.

Orbital elements:  P10NTjU
   Perihelion 2019 Jul 2.559431 +/- 9.31 TT = 13:25:34 (JD 2458667.059431)
Epoch 2019 May 13.0 TT = JDT 2458616.5   Earth MOID: 0.0031   AutoNEOCP
M 341.91519323 +/- 18               (J2000 ecliptic)
n   0.35769403 +/- 0.317            Peri.  242.79788 +/- 2.2
a   1.96544811 +/- 1.17             Node    58.46656 +/- 2.9
e   0.5866808 +/- 0.269             Incl.   22.33537 +/- 6
P   2.76                   H 25.6   G  0.15   U 12.0  
q 0.81235740 +/- 0.0551    Q 3.11853882 +/- 2.61
From 8 observations 2019 May 11-13 (41.4 hr); mean residual 1".96
Residuals in arcseconds: 
190511 F51  1.4+  4.7-    190511 F51  1.6-  4.8+    190513 I52  .60+  .46+    
190511 F51  .51+  1.5-    190513 I52  1.6-  1.4-    190513 I52  .79+  1.1+    
190511 F51  .36-  1.5+    190513 I52  .17+  .56-    

Ephemerides (geocentric):
Date (UTC) HH   RA              Dec         delta   r     elong  mag " sig PA
---- -- -- --  -------------   -----------  ------ ------ -----  --- ---- ---
2019 05 21 08  05 38 12.083   -35 25 53.81  .00989 1.0073  61.1 20.3 138d 117
2019 05 21 09  05 33 36.990   -34 57 29.39  .01030 1.0070  60.3 20.5 138d 118
2019 05 21 10  05 29 26.124   -34 30 43.39  .01072 1.0066  59.5 20?? 139d 119
2019 05 21 11  05 25 36.566   -34 05 30.06  .01114 1.0063  58.7 20?? 139d 119
2019 05 21 12  05 22 05.823   -33 41 43.55  .01157 1.0060  58.0 20?? 140d 120
2019 05 21 13  05 18 51.761   -33 19 18.12  .01199 1.0056  57.4 21?? 140d 120
2019 05 21 14  05 15 52.542   -32 58 08.24  .01242 1.0053  56.8 21?? 140d 121
2019 05 21 15  05 13 06.582   -32 38 08.67  .01285 1.0050  56.3 21?? 141d 121
2019 05 21 16  05 10 32.503   -32 19 14.48  .01328 1.0047  55.8 21?? 141d 121
2019 05 21 17  05 08 09.108   -32 01 21.08  .01372 1.0043  55.3 21?? 141d 122
2019 05 21 18  05 05 55.352   -31 44 24.20  .01415 1.0040  54.9 21?? 141d 122
2019 05 21 19  05 03 50.317   -31 28 19.89  .01459 1.0037  54.5 21?? 141d 122
2019 05 21 20  05 01 53.194   -31 13 04.52  .01502 1.0034  54.1 21?? 141d 123
2019 05 21 21  05 00 03.273   -30 58 34.70  .01546 1.0030  53.7 21?? 141d 123
2019 05 21 22  04 58 19.920   -30 44 47.36  .01590 1.0027  53.4 22?? 141d 123
2019 05 21 23  04 56 42.574   -30 31 39.63  .01634 1.0024  53.0 22?? 140d 124
2019 05 22 00  04 55 10.736   -30 19 08.90  .01678 1.0021  52.7 22?? 140d 124
2019 05 22 01  04 53 43.958   -30 07 12.74  .01722 1.0018  52.4 22?? 140d 124
2019 05 22 02  04 52 21.840   -29 55 48.93  .01766 1.0014  52.2 22?? 139d 124
2019 05 22 03  04 51 04.021   -29 44 55.41  .01810 1.0011  51.9 22?? 139d 124
2019 05 22 04  04 49 50.176   -29 34 30.28  .01855 1.0008  51.6 22?? 138d 125
2019 05 22 05  04 48 40.013   -29 24 31.81  .01899 1.0005  51.4 22?? 138d 125
2019 05 22 06  04 47 33.267   -29 14 58.37  .01943 1.0001  51.2 22?? 137d 125
2019 05 22 07  04 46 29.696   -29 05 48.47  .01988 0.9998  51.0 22?? 136d 125
2019 05 22 08  04 45 29.081   -28 57 00.73  .02032 0.9995  50.8 22?? 136d 125
2019 05 22 09  04 44 31.224   -28 48 33.86  .02077 0.9992  50.6 22?? 135d 125
2019 05 22 10  04 43 35.942   -28 40 26.68  .02121 0.9988  50.4 22?? 134d 126
2019 05 22 11  04 42 43.068   -28 32 38.08  .02166 0.9985  50.2 22?? 133d 126
2019 05 22 12  04 41 52.450   -28 25 07.03  .02211 0.9982  50.1 23?? 132d 126
2019 05 22 13  04 41 03.948   -28 17 52.59  .02255 0.9979  49.9 23?? 131d 126
2019 05 22 14  04 40 17.433   -28 10 53.86  .02300 0.9976  49.7 23?? 130d 126
2019 05 22 15  04 39 32.786   -28 04 10.02  .02345 0.9972  49.6 23?? 129d 126
2019 05 22 16  04 38 49.897   -27 57 40.28  .02390 0.9969  49.4 23?? 127d 126
2019 05 22 17  04 38 08.667   -27 51 23.94  .02434 0.9966  49.3 23?? 126d 126
2019 05 22 18  04 37 29.000   -27 45 20.32  .02479 0.9963  49.2 23?? 124d 127
2019 05 22 19  04 36 50.810   -27 39 28.77  .02524 0.9959  49.0 23?? 122d 127
2019 05 22 20  04 36 14.017   -27 33 48.73  .02569 0.9956  48.9 23?? 121d 127
2019 05 22 21  04 35 38.545   -27 28 19.62  .02614 0.9953  48.8 23?? 119d 127
2019 05 22 22  04 35 04.326   -27 23 00.92  .02659 0.9950  48.7 23?? 117d 127
2019 05 22 23  04 34 31.295   -27 17 52.16  .02704 0.9947  48.6 23?? 115d 127
2019 05 23 00  04 33 59.391   -27 12 52.87  .02749 0.9943  48.5 23?? 112d 127
2019 05 23 01  04 33 28.557   -27 08 02.62  .02794 0.9940  48.4 23?? 110d 127
2019 05 23 02  04 32 58.741   -27 03 21.00  .02838 0.9937  48.3 23?? 107d 127
2019 05 23 03  04 32 29.894   -26 58 47.63  .02883 0.9934  48.2 23?? 105d 127
2019 05 23 04  04 32 01.970   -26 54 22.15  .02928 0.9931  48.1 23?? 102d 128
2019 05 23 05  04 31 34.924   -26 50 04.21  .02973 0.9927  48.0 23??  99d 128
2019 05 23 06  04 31 08.717   -26 45 53.51  .03019 0.9924  47.9 23??  96d 128
2019 05 23 07  04 30 43.309   -26 41 49.72  .03064 0.9921  47.8 23??  93d 128